Location: East Irvine
(33.6759°N, 117.7598°W)
Time: 22:55:35
(UTC+00:00)

USA 215 - Pass Details

Date: 15 November 2025
Orbit: 1101 x 1106 km, 123.0° (Epoch: 12 December)

Event Time Altitude Azimuth Distance (km) Brightness Sun altitude
Rises 02:02:29 0° 141° (SE) 3,906 5.9 -15.6°
Reaches altitude 10° 02:04:58 10° 142° (SE) 2,951 5.3 -16.1°
Maximum altitude 02:11:29 77° 228° (SW) 1,132 3.4 -17.4°
Drops below altitude 10° 02:18:03 10° 315° (NW) 2,966 6.0 -18.7°
Sets 02:20:33 0° 316° (NW) 3,927 6.6 -19.3°
